Kissimmee, FL

9:27 AM EST on November 13, 2019 (GMT -0500)
Kissimmee Municipal

Weather History for KISM - August, 2019

Change the Weather History Date:

Saturday, August 31, 2019

  Actual Average Record
Temperature  
Mean Temperature 84 °F -  
Max Temperature 91 °F 90 °F 95 °F (2004)
Min Temperature 78 °F 71 °F 68 °F (1966)
Cooling Degree Days 20    
Growing Degree Days 34 (Base 50)    
Moisture  
Dew Point 76 °F    
Average Humidity 77    
Maximum Humidity 93    
Minimum Humidity 57    
Precipitation  
Precipitation 0.00 in - - ()
Sea Level Pressure  
Sea Level Pressure 29.99 in    
Wind  
Wind Speed 8 mph (ENE)    
Max Wind Speed 20 mph    
Max Gust Speed 22 mph    
Visibility 10 miles    
Events Rain    
Averages and records for this station are not official NWS values.
T = Trace of Precipitation, MM = Missing Value Source: NWS Daily Summary

Daily Weather History Graph

Daily Weather History Graph

Search for Another Location

Airport or City:

Astronomy

Aug. 31, 2019 Rise Set
Actual Time 7:03 AM EDT 7:48 PM EDT
Civil Twilight 6:39 AM EDT 8:12 PM EDT
Nautical Twilight 6:11 AM EDT 8:40 PM EDT
Astronomical Twilight 5:42 AM EDT 9:09 PM EDT
Moon 8:15 AM EDT (8/31) 9:06 PM EDT (8/31)
Length of Visible Light 13h 32m
Length of Day
12h 44m
New Moon, 2% of the Moon is Illuminated
Aug 31
New Moon
Sep 5
First Quarter
Sep 14
Full
Sep 21
Last Quarter
Sep 28
New

Hourly Weather History & Observations

Time (EDT) Temp. Heat Index Dew Point Humidity Pressure Visibility Wind Dir Wind Speed Gust Speed Precip Events Conditions
12:56 AM 80.1 °F 85.4 °F 75.9 °F 87% 30.01 in 10.0 mi East 5.8 mph - N/A   Clear
1:56 AM 79.0 °F - 75.9 °F 90% 30.00 in 10.0 mi East 4.6 mph - N/A   Clear
2:56 AM 79.0 °F - 75.9 °F 90% 29.99 in 10.0 mi NE 4.6 mph - N/A   Clear
3:56 AM 78.1 °F - 75.9 °F 93% 29.99 in 10.0 mi ENE 5.8 mph - N/A   Clear
4:56 AM 78.1 °F - 75.9 °F 93% 29.98 in 10.0 mi Calm Calm - N/A   Clear
5:56 AM 78.1 °F - 75.9 °F 93% 29.99 in 10.0 mi NNE 3.5 mph - N/A   Clear
6:56 AM 78.1 °F - 75.9 °F 93% 30.00 in 10.0 mi NE 3.5 mph - N/A   Partly Cloudy
7:56 AM 80.1 °F 85.8 °F 77.0 °F 90% 30.02 in 10.0 mi NE 6.9 mph - N/A   Partly Cloudy
8:56 AM 82.0 °F 90.2 °F 77.0 °F 85% 30.01 in 10.0 mi ENE 8.1 mph - N/A   Clear
9:56 AM 84.0 °F 92.6 °F 75.9 °F 76% 30.02 in 10.0 mi East 13.8 mph - N/A   Clear
10:56 AM 87.1 °F 98.8 °F 77.0 °F 72% 30.02 in 10.0 mi ESE 8.1 mph - N/A   Clear
11:56 AM 86.0 °F 98.3 °F 78.1 °F 77% 30.02 in 10.0 mi SE 6.9 mph - N/A Rain Light Rain
12:07 PM 87.8 °F 99.7 °F 77.0 °F 70% 30.00 in 10.0 mi East 10.4 mph - N/A   Overcast
12:42 PM 89.6 °F 99.8 °F 75.2 °F 62% 30.00 in 10.0 mi East 15.0 mph 19.6 mph N/A   Scattered Clouds
12:56 PM 90.0 °F 100.2 °F 75.0 °F 61% 30.00 in 10.0 mi East 13.8 mph - N/A   Clear
1:56 PM 91.0 °F 101.6 °F 75.0 °F 59% 29.99 in 10.0 mi East 15.0 mph - N/A   Scattered Clouds
2:56 PM 91.9 °F 105.9 °F 77.0 °F 62% 29.97 in 10.0 mi ESE 15.0 mph 21.9 mph N/A   Mostly Cloudy
3:56 PM 91.0 °F 100.4 °F 73.9 °F 57% 29.95 in 10.0 mi ENE 15.0 mph 19.6 mph N/A   Mostly Cloudy
4:56 PM 89.1 °F 98.0 °F 73.9 °F 61% 29.94 in 10.0 mi East 19.6 mph - N/A   Partly Cloudy
5:56 PM 87.1 °F 96.3 °F 75.0 °F 67% 29.95 in 10.0 mi East 13.8 mph - N/A   Scattered Clouds
6:56 PM 88.0 °F 96.5 °F 73.9 °F 63% 29.96 in 10.0 mi East 11.5 mph - N/A   Clear
7:56 PM 84.9 °F 93.3 °F 75.0 °F 72% 29.98 in 10.0 mi East 12.7 mph - N/A   Clear
8:56 PM 84.0 °F 91.9 °F 75.0 °F 74% 29.98 in 10.0 mi ENE 9.2 mph - N/A   Clear
9:56 PM 82.9 °F 90.8 °F 75.9 °F 79% 29.99 in 10.0 mi ENE 8.1 mph - N/A   Clear
10:56 PM 82.0 °F 90.2 °F 77.0 °F 85% 30.01 in 10.0 mi ENE 8.1 mph - N/A   Clear
11:56 PM 81.0 °F 87.9 °F 77.0 °F 88% 30.01 in 10.0 mi NE 4.6 mph - N/A   Clear